Etusivu
METAR-TAF:

METAR-TAF

Lentoasemat :

Grants-Milan Municipal Airport

Grants, New Mexico, Yhdysvallat

Leveyspiiri: 35-09-55N, Pituuspiiri: 107-54-08W, korkeus merenpinnasta: 1988 m

Tämänhetkinen sää

Tämä raportti tehtiin 25 minuuttia sitten, kello 04.15 UTC
tyyntä
Lämpötila -1°C
Kosteus 46%
Ilmanpaine 1025 hPa
Näkyvyys: 16.1 km
selkeää

METAR: KGNT 210415Z AUTO 00000KT 10SM CLR M01/M11 A3027 RMK AO2 T10101111

Aika: 21:40 (04:40 UTC)


TAF: puuttuu

Säähavainnot ja -ennusteet yli 4000 lentoasemalta (METAR- ja TAF-raportit).

Käytössä olevat sääasemat on merkitty karttaan keltaisilla ja punaisilla pisteillä.

Aseta hiiri pisteen päälle nähdäksesi sääaseman nimen.

Klikkaa sitten nähdäksesi säähavainnot ja -ennusteet.

Kartan vaihtaminen: klikkaa mustalla rastilla varustettuja vihreitä pisteitä, niin voit zoomata sisään; viivalla varustettua vihreää pistettä, niin voit zoomata ulos tai vihreitä nuolia, niin pääset viereisille kartoille.


METAR-TAF: